Lafayette, Louisiana, United States (70501)
Lat: 30.22N, Lon: 92.02W
Wx Zone: LAZ044
Local Info
Past Weather Observations for Today

NOTE: This archive is for the closest National Weather Service station to Lafayette. Information may differ from the station used for current weather conditions.

Click here for Long-term Archive

Time Weather Temperature Dewpoint Humidity Pressure Winds Precip Visibility
22:53
Clear
77°F / 25°C 73°F / 23°C 89% 30.04 in
(1017 mb)
NE 3.5 mph
(NE 6 kph)
- 10SM
21:53
Clear
79°F / 26°C 72°F / 22°C 79% 30.04 in
(1017 mb)
Calm - 10SM
20:53
Clear
81°F / 27°C 73°F / 23°C 79% 30.04 in
(1017 mb)
ENE 5.8 mph
(ENE 9 kph)
- 10SM
19:53
Mostly Cloudy
82°F / 28°C 73°F / 23°C 74% 30.01 in
(1016 mb)
NE 5.8 mph
(NE 9 kph)
- 10SM
18:53
Clear
86°F / 30°C 73°F / 23°C 66% 30.01 in
(1016 mb)
Calm - 10SM
17:53
Clear
88°F / 31°C 72°F / 22°C 59% 30.01 in
(1016 mb)
Calm - 10SM
16:53
Clear
90°F / 32°C 66°F / 19°C 46% 30.01 in
(1016 mb)
NNE 10.4 mph
(NNE 17 kph)
- 10SM
15:53
Clear
90°F / 32°C 68°F / 20°C 49% 30.01 in
(1016 mb)
NNE 6.9 mph
(NNE 11 kph)
- 10SM
14:53
Partly Cloudy
90°F / 32°C 70°F / 21°C 52% 30.01 in
(1016 mb)
ENE 4.6 mph
(ENE 7 kph)
- 10SM
13:53
Clear
90°F / 32°C 70°F / 21°C 52% 30.01 in
(1016 mb)
NE 8.1 mph
(NE 13 kph)
- 10SM
12:53
Partly Cloudy
88°F / 31°C 66°F / 19°C 49% 30.04 in
(1017 mb)
NE 6.9 mph
(NE 11 kph)
- 10SM
11:53
Mostly Cloudy
90°F / 32°C 70°F / 21°C 52% 30.04 in
(1017 mb)
N 9.2 mph
(N 15 kph)
- 10SM
10:53
Mostly Cloudy
88°F / 31°C 72°F / 22°C 59% 30.04 in
(1017 mb)
N 8.1 mph
(N 13 kph)
- 10SM
09:53
Partly Cloudy
86°F / 30°C 72°F / 22°C 62% 30.06 in
(1018 mb)
N 5.8 mph
(N 9 kph)
- 10SM
08:53
Partly Cloudy
82°F / 28°C 73°F / 23°C 74% 30.06 in
(1018 mb)
Calm - 10SM
07:53
Partly Cloudy
79°F / 26°C 73°F / 23°C 84% 30.04 in
(1017 mb)
Calm - 10SM
06:53
Mostly Cloudy
75°F / 24°C 73°F / 23°C 94% 30.04 in
(1017 mb)
NE 6.9 mph
(NE 11 kph)
- 10SM
05:53
Clear
73°F / 23°C 72°F / 22°C 94% 30.04 in
(1017 mb)
NE 3.5 mph
(NE 6 kph)
- 9SM
04:53
Clear
75°F / 24°C 72°F / 22°C 89% 30.04 in
(1017 mb)
Calm - 10SM
03:53
Partly Cloudy
75°F / 24°C 73°F / 23°C 94% 30.01 in
(1016 mb)
Calm - 10SM
02:53
Clear
75°F / 24°C 73°F / 23°C 94% 30.01 in
(1016 mb)
NE 4.6 mph
(NE 7 kph)
- 9SM
01:53
Partly Cloudy
77°F / 25°C 73°F / 23°C 89% 30.01 in
(1016 mb)
Calm - 9SM
00:53
Clear
79°F / 26°C 73°F / 23°C 84% 30.01 in
(1016 mb)
Calm - 10SM
Time Weather Temperature Dewpoint Humidity Pressure Winds Precip Visibility


Weather for websites

WeatherForYou.com, LLC is not responsible for any damages or problems caused by this service. Current weather conditions are obtained from the closest station including government and personal stations which may have varying degrees of accuracy. Weather forecasts are derived from the NOAA NDFD. Like all things, this site belongs to Jesus Christ... He just trusts me to maintain it. If you have any questions or comments email webmaster@weatherforyou.com

Copyright © 2014, WeatherForYou.com LLC. All rights reserved.